NUSAT 1 (LO-87) (41557 NORAD) Tracking and Keplerian Element Data

This shows tracking and keplerian element data for the satellite.

Feedback or suggestion? Click here.




ElementValue
Catalog41557
NameNUSAT 1 (LO-87)
Epoch Orbit11950
Epoch Day203.2079893
Epoch Year2018
RAAN287.355
Inclination97.4366
Eccentricity0.0015092
Argument of Perigee39.935
Mean Anonmoly320.2996
Mean Motion15.27753994
Decay Rate1.138E-05
L11 41557U 16033B 18203.20798930 .00001138 00000-0 44625-4 0 9995
L22 41557 97.4366 287.3550 0015092 39.9350 320.2996 15.27753994119504

Live tracking and technical data element details for NUSAT 1 (LO-87) (NORAD 41557). NUSAT 1 (LO-87) can be tracked NOW for your location showing map with azimuth and elevation plus other details from your city location.

Track the satellite on the map from your city or location and see movement details for azimuth, elevation, latitude, longitude, range, height, and movement on the map or in text.







IsCatalogInMostPopularTable: catalog: 41557, numindb: 86
Update: records affected: 1



GetName: 41557 NUSAT 1 (LO-87)

Hit Count: updated at: Mon, 23 Jul 2018 07:35:59 GMT